Hourly Data Report for May 06, 2021

WINNIPEG THE FORKS
MANITOBA
Current Station Operator: ECCC - MSC

49°53'18.008" N
97°07'46.007" W
230.00 m
5023262
71579
XWN

Download Data

Hourly Data (May 2021)
Hourly Data Report for May 6, 2021
TIME
LST
Temp Definition
°C
Dew Point Definition
°C
Rel Hum Definition
%
Precip. Amount Definition
mm

Wind Dir Definition
10's deg

Wind Spd Definition
km/h
Visibility Definition
km
Stn Press Definition
kPa
Hmdx Definition


Wind Chill Definition


Weather Definition


00:00 5.0 -6.3 44 0.0   0   99.42     LegendNANA
01:00 4.9 -8.7 36 0.0 21 2   99.41     LegendNANA
02:00 3.6 -8.8 40 0.0   0   99.39     LegendNANA
03:00 3.4 -9.5 38 0.0   0   99.36     LegendNANA
04:00 3.7 -10.2 35 0.0 24 2   99.34     LegendNANA
05:00 3.2 -9.5 39 0.0 24 1   99.32     LegendNANA
06:00 4.1 -8.4 39 0.0 27 2   99.35     LegendNANA
07:00 4.6 -6.5 44 0.0 33 6   99.36     LegendNANA
08:00 6.4 -5.3 43 0.0 35 8   99.36     LegendNANA
09:00 9.3 -5.6 35 0.0 36 8   99.36     LegendNANA
10:00 10.0 -5.7 33 0.0 35 10   99.36     LegendNANA
11:00 7.8 -3.8 44 0.0 35 16   99.40     LegendNANA
12:00 10.6 -4.5 34 0.0 36 8   99.31     LegendNANA
13:00 11.0 -6.1 30 0.0 32 13   99.26     LegendNANA
14:00 11.4 -5.7 30 0.0 36 11   99.27     LegendNANA
15:00 10.9 -6.9 28 0.0 36 11   99.28     LegendNANA
16:00 10.7 -7.4 27 0.0 1 16   99.30     LegendNANA
17:00 9.3 -6.0 34 0.0 3 14   99.35     LegendNANA
18:00 8.3 -4.7 39 0.0 2 17   99.40     LegendNANA
19:00 6.8 -4.6 44 0.0 2 13   99.46     LegendNANA
20:00 5.7 -4.4 48 0.0 1 15   99.53     LegendNANA
21:00 4.6 -4.6 51 0.0 1 8   99.56     LegendNANA
22:00 3.6 -5.3 52 0.0 34 7   99.55     LegendNANA
23:00 3.1 -5.1 55 0.0 33 7   99.57     LegendNANA

Notes on Data Quality.

Legend

  • E = Estimated
  • M = Missing
  • NA = Not Available*
  • [empty] = Indicates an unobserved value
Date modified: